PEGASUS DEB, 25449

Orbit data source: Space-Track

PEGASUS DEB, 25449 is space debris in LEO originally from a launch on Thu, 19 May 1994 UTC launched from the Air Force Western Test Range (AFWTR). Debris objects in space refer to the collection of defunct objects orbiting the Earth. Examples of debris include non-operational satellites, rocket bodies, and fragments generated from explosions, collisions, or faulty payload assembly.

Loading next visibility...
Identifier
25449, 1994-029AED
Orbit
LEO
Country
Flag of USUS
Related business
Manufacturer
Unknown
Mission
Spacecraft
Bus & Motor
Unknown
Mass
Unknown
Launch date (UTC)
1994-05-19 (32 years ago)
Launch vehicle
Unknown
Launch site
Air Force Western Test Range (AFWTR)
Object type
Payload
Rocket body
Debris
Shape & HBR
Unknown shape, 0.1 m
Radar Cross Section
Small (<0.1 m²)

Expand to show TLE details & history
Last TLE update: 17 hours ago

TLE from 17 hours ago
0 PEGASUS DEB
1 25449U 94029AED 26063.22881496  .00011026  00000-0  46344-2 0  9998
2 25449  82.1078 354.6901 0754716 199.7595 157.2798 13.30022344289960
Epoch: 2026-03-04T05:29Z
TLE epoch observation values (Epoch: 2026-03-04T05:29:29.612Z)
Latitude
-0.00001°
Longitude
110.32019°
Altitude
1,679.218 km
Speed
6.783 km/s
True Right ascension
23h 38m 45s
True Declination
0° 00' 00"
Sunlit
Object was in daylight at epoch
Visualization orbit readout
Latitude
Unknown
Longitude
Unknown
Altitude
Unknown
Speed
Unknown
Apparent Right ascension
Unknown
Apparent Declination
Unknown
Sunlit
N/A
Visualization observer readout
Local Sidereal Time
01:56:07
Azimuth
Unknown
Elevation
Unknown
Doppler factor
Unknown
Orbital elements
Apogee altitude
1,711.6 km
Perigee altitude
576.2 km
Semi-major axis
7,522.037 km
Eccentricity
0.07547
Inclination
82.1078°
RAAN
354.6901°
Arg. of periapsis
199.7595°
True anomaly
160.35048°
Mean anomaly
157.2798°
Eccentric anomaly
158.84068°
Mean motion
3.3269 °/min
Orbital period
108.21 mins
BSTAR
0.0046344
Loading maneuver chart data...
Computing Atmospheric mass density...
Loading historical data...
Loading historical data...
Loading historical data...
Loading historical data...
Loading historical data...
Loading historical data...
Loading historical data...

Documentation

Showing up to 5 results
|